[[{"header":{"parameterUnit":"m.s-1","parameterCategory":1,"la1":30.2991,"la2":30.254,"lo1":-89.0895,"lo2":-89.0444,"dy":0.0017,"dx":0.0017,"nx":28,"ny":28,"refTime":"2025-04-21T03:00:00:Z","depth":0,"parameterNumber":2,"parameterNumberName":"U-component_of_WINDS"},"data":[0,0,0,0,0,0,0,0,0,0,0,0,0,0,0,0,0,0,0,0,0,0,0,0,0,0,0,0,0,0,0,0,0,0,0,0,0,0,0,0,0,0,0,0,0,0,0,0,0,0,0,0,0,0,0,0,0,0,-2.4502,-2.4502,0,-2.4568,-2.4568,-2.4569,-2.4578,-2.4577,-2.4577,-2.4576,-2.4643,-2.4645,-2.4647,0,0,0,0,0,0,0,0,0,0,0,0,0,-2.4383,-2.4385,-2.4502,-2.4502,-2.4503,-2.4568,-2.4568,-2.4569,-2.4578,-2.4577,-2.4576,-2.4576,-2.4642,-2.4645,-2.4648,0,0,0,0,0,0,0,0,0,0,0,0,0,-2.444,-2.4386,-2.4501,-2.4515,-2.4517,-2.4567,-2.4569,-2.457,-2.4578,-2.4577,-2.4576,-2.4575,-2.4641,-2.4645,-2.4648,-2.4689,0,0,-2.4659,-2.466,0,0,0,0,0,0,0,0,-2.4437,-2.4445,-2.4512,-2.4514,-2.4517,-2.4564,-2.4551,-2.461,-2.4578,-2.4555,-2.4576,-2.4575,-2.4617,-2.4623,-2.4637,-2.4692,-2.4695,-2.4659,-2.4661,-2.4663,-2.4664,0,0,0,0,0,0,0,-2.4433,-2.4442,-2.4528,-2.4513,-2.4516,-2.4518,-2.4525,-2.4562,-2.4591,-2.4557,-2.4558,-2.4565,-2.4618,-2.4634,-2.4639,-2.4696,-2.4659,-2.4662,-2.4665,-2.4666,-2.4788,-2.4789,0,0,0,0,0,0,-2.4427,-2.4439,-2.4526,-2.453,-2.4474,-2.4521,-2.4529,-2.4549,-2.459,-2.4595,-2.4566,-2.4566,-2.4628,-2.4635,-2.4641,-2.4691,-2.4663,-2.4666,-2.4668,-2.4787,-2.4789,-2.479,0,0,0,0,0,0,-2.4424,-2.4434,-2.4523,-2.4484,-2.4496,-2.4524,-2.4547,-2.4551,-2.4567,-2.4597,-2.4602,-2.4577,-2.4628,-2.4636,-2.4677,-2.4694,-2.4668,-2.4671,-2.4786,-2.4788,-2.4789,-2.4792,0,0,0,0,0,0,-2.4421,-2.4433,-2.4449,-2.4485,-2.4498,-2.4558,-2.4548,-2.4553,-2.4573,-2.4573,-2.4608,-2.4613,-2.4627,-2.4672,-2.4681,-2.4698,-2.4674,-2.4784,-2.4787,-2.4789,-2.4791,-2.4794,-2.4797,0,0,0,0,0,-2.4416,-2.4447,-2.445,-2.446,-2.4518,-2.4559,-2.4566,-2.4582,-2.4574,-2.459,-2.461,-2.4612,-2.4691,-2.4676,-2.4686,-2.4705,-2.4783,-2.4786,-2.4788,-2.479,-2.4793,-2.4797,0,0,0,0,0,0,-2.4412,-2.4452,-2.4455,-2.4498,-2.4525,-2.456,-2.458,-2.4585,-2.4615,-2.4613,-2.4631,-2.4639,-2.468,-2.4697,-2.4679,-2.4747,-2.4737,-2.4741,-2.4734,-2.4738,-2.4741,-2.4735,-2.4677,0,0,0,0,0,-2.4416,-2.4446,-2.4479,-2.4514,-2.4527,-2.4552,-2.457,-2.458,-2.4608,-2.4619,-2.4642,-2.467,-2.4701,-2.472,-2.4751,-2.4794,-2.4802,-2.4812,-2.4815,-2.4817,-2.4821,-2.4845,-2.485,-2.4798,-2.4798,-2.4798,0,0,-2.4425,-2.445,-2.4468,-2.4514,-2.4536,-2.4566,-2.4561,-2.4593,-2.4616,-2.4624,-2.4664,-2.4682,-2.4714,-2.4756,-2.4776,-2.4772,-2.4837,-2.4821,-2.4822,-2.4824,-2.4848,-2.4853,-2.4857,-2.48,-2.4799,-2.4799,0,0,-2.4455,-2.4478,-2.4509,-2.4532,-2.4565,-2.4581,-2.4589,-2.4624,-2.4636,-2.4677,-2.4684,-2.4711,-2.4764,-2.4787,-2.4805,-2.4846,-2.4849,-2.4856,-2.487,-2.4894,-2.4898,-2.4901,-2.4915,-2.492,-2.4859,-2.4859,-2.4859,0,-2.4461,-2.4507,-2.4525,-2.4557,-2.4577,-2.4587,-2.4619,-2.464,-2.4682,-2.4695,-2.469,-2.4757,-2.4779,-2.4827,-2.4837,-2.4852,-2.4861,-2.4851,-2.4896,-2.49,-2.4903,-2.4917,-2.4922,-2.486,-2.486,-2.486,-2.486,0,-2.4513,-2.4545,-2.4567,-2.4607,-2.463,-2.4661,-2.4684,-2.4705,-2.4714,-2.4731,-2.4772,-2.48,-2.4835,-2.4848,-2.4856,-2.4897,-2.4894,-2.4892,-2.4882,-2.4908,-2.4921,-2.4927,-2.486,-2.486,-2.486,-2.486,0,0,-2.4541,-2.4592,-2.4599,-2.4618,-2.4656,-2.4681,-2.4714,-2.475,-2.4767,-2.4796,-2.4824,-2.4869,-2.4868,-2.4889,-2.4901,-2.4922,-2.4952,-2.4917,-2.4918,-2.4922,-2.4998,-2.4998,-2.5004,-2.4955,-2.4956,-2.4957,-2.4996,0,-2.4576,-2.4634,-2.4651,-2.47,-2.473,-2.4741,-2.477,-2.4796,-2.4814,-2.4842,-2.4861,-2.4892,-2.4889,-2.4902,-2.4923,-2.4944,-2.4967,-2.4941,-2.4981,-2.4982,-2.4971,-2.5011,-2.5011,-2.5046,-2.5001,-2.5002,-2.5002,0,-2.4623,-2.4653,-2.4705,-2.474,-2.4754,-2.4779,-2.4813,-2.484,-2.4871,-2.4882,-2.4906,-2.4916,-2.4951,-2.494,-2.4989,-2.4971,-2.4988,-2.5001,-2.5003,-2.5006,-2.4992,-2.5014,-2.5058,-2.5062,-2.5011,-2.501,-2.5009,0,-2.4637,-2.4691,-2.4729,-2.4745,-2.4787,-2.4805,-2.4823,-2.4853,-2.4874,-2.4904,-2.4918,-2.4952,-2.497,-2.4996,-2.5015,-2.5006,-2.5062,-2.5053,-2.5072,-2.5071,-2.5082,-2.5081,-2.5127,-2.5095,-2.5095,-2.5095,-2.5095,0,-2.4673,-2.4704,-2.4736,-2.4759,-2.4795,-2.4815,-2.485,-2.4869,-2.4896,-2.4923,-2.4935,-2.4961,-2.4985,-2.5014,-2.5029,-2.5067,-2.5075,-2.5085,-2.5088,-2.5083,-2.5082,-2.5094,-2.5091,-2.5097,-2.5096,-2.5096,-2.5096,0,-2.4694,-2.4717,-2.4759,-2.4796,-2.4806,-2.483,-2.4862,-2.4885,-2.4904,-2.4938,-2.4948,-2.4976,-2.5011,-2.5033,-2.5077,-2.5088,-2.5129,-2.5132,-2.5118,-2.5119,-2.5137,-2.5135,-2.5192,-2.52,-2.5163,-2.5164,-2.5164,0,-2.4715,-2.4739,-2.4779,-2.4798,-2.4817,-2.4848,-2.4869,-2.4891,-2.4912,-2.495,-2.4969,-2.5004,-2.5034,-2.5089,-2.5114,-2.5148,-2.5151,-2.5169,-2.5156,-2.515,-2.515,-2.5148,-2.5151,-2.517,-2.5171,-2.5171,-2.5171,0,-2.4749,-2.4759,-2.479,-2.4824,-2.4849,-2.4877,-2.4905,-2.492,-2.4947,-2.497,-2.5006,-2.5029,-2.5075,-2.511,-2.5146,-2.5165,-2.5173,-2.5175,-2.5181,-2.5175,-2.5166,-2.5171,-2.5122,-2.5173,-2.5173,-2.5173,-2.5173,-2.5173,-2.477,-2.4793,-2.4824,-2.4857,-2.4881,-2.4907,-2.4931,-2.4953,-2.4983,-2.5021,-2.5032,-2.507,-2.5101,-2.5151,-2.5171,-2.5201,-2.5198,-2.5207,-2.5209,-2.5211,-2.5211,-2.5163,-2.5208,-2.5208,-2.5207,-2.5207,-2.5207,0,-2.4805,-2.4826,-2.4856,-2.4895,-2.4922,-2.4927,-2.4959,-2.498,-2.5013,-2.5042,-2.5071,-2.5112,-2.5147,-2.5175,-2.521,-2.5229,-2.5233,-2.5237,-2.5235,-2.524,-2.5211,-2.5202,-2.5233,-2.5233,-2.5233,-2.5233,-2.5233,-2.5233,-2.4825,-2.4863,-2.4877,-2.4927,-2.4948,-2.4985,-2.5002,-2.5027,-2.505,-2.5095,-2.5124,-2.5142,-2.5171,-2.5209,-2.5241,-2.5249,-2.5261,-2.5264,-2.5272,-2.5245,-2.5242,-2.5239,-2.523,-2.5267,-2.5267,-2.5298,-2.5299,-2.5299]},{"header":{"parameterUnit":"m.s-1","parameterCategory":1,"la1":30.2991,"la2":30.254,"lo1":-89.0895,"lo2":-89.0444,"dy":0.0017,"dx":0.0017,"nx":28,"ny":28,"refTime":"2025-04-21T03:00:00:Z","depth":0,"parameterNumber":3,"parameterNumberName":"V-component_of_WINDS"},"data":[0,0,0,0,0,0,0,0,0,0,0,0,0,0,0,0,0,0,0,0,0,0,0,0,0,0,0,0,0,0,0,0,0,0,0,0,0,0,0,0,0,0,0,0,0,0,0,0,0,0,0,0,0,0,0,0,0,0,4.2006,4.2007,0,4.2057,4.2058,4.2059,4.2023,4.2021,4.202,4.2018,4.2065,4.2068,4.2071,0,0,0,0,0,0,0,0,0,0,0,0,0,4.1874,4.1876,4.2006,4.2007,4.2008,4.2057,4.2058,4.2059,4.2023,4.2021,4.2019,4.2017,4.2065,4.2068,4.2071,0,0,0,0,0,0,0,0,0,0,0,0,0,4.1929,4.1877,4.2006,4.1996,4.1995,4.2057,4.2058,4.2059,4.2023,4.2021,4.2019,4.2016,4.2063,4.2067,4.2072,4.2145,0,0,4.2084,4.2086,0,0,0,0,0,0,0,0,4.1926,4.1933,4.1997,4.1997,4.1996,4.2031,4.2029,4.2088,4.2024,4.2013,4.2018,4.2015,4.2056,4.206,4.2075,4.2147,4.2149,4.2084,4.2087,4.2089,4.209,0,0,0,0,0,0,0,4.1922,4.1931,4.2026,4.1998,4.1997,4.1987,4.1993,4.204,4.2047,4.2013,4.2011,4.2018,4.2055,4.2071,4.2076,4.215,4.2084,4.2088,4.2091,4.2092,4.2286,4.2288,0,0,0,0,0,0,4.192,4.1928,4.2025,4.2028,4.1955,4.1992,4.1998,4.2022,4.2046,4.2048,4.202,4.2016,4.2065,4.2071,4.2077,4.2166,4.2089,4.2093,4.2095,4.2283,4.2286,4.2289,0,0,0,0,0,0,4.1917,4.1929,4.2023,4.1977,4.1989,4.1997,4.2025,4.2025,4.2041,4.2051,4.2052,4.2035,4.2064,4.2072,4.2129,4.2167,4.2094,4.2098,4.228,4.2284,4.2288,4.2342,0,0,0,0,0,0,4.1913,4.1928,4.1956,4.1978,4.1991,4.2075,4.2027,4.2027,4.2049,4.2044,4.2066,4.2067,4.2062,4.2123,4.2133,4.2171,4.2101,4.2276,4.2282,4.2286,4.2337,4.2347,4.2356,0,0,0,0,0,4.1909,4.1968,4.1958,4.197,4.2027,4.2077,4.2084,4.2079,4.2052,4.208,4.2087,4.2066,4.2161,4.2129,4.214,4.218,4.2274,4.228,4.2286,4.2332,4.2345,4.2356,0,0,0,0,0,0,4.1947,4.1971,4.196,4.2028,4.2051,4.2071,4.2106,4.2092,4.2122,4.2116,4.2107,4.2113,4.2173,4.2182,4.2146,4.2253,4.2213,4.2222,4.2245,4.2257,4.2267,4.2263,4.2105,0,0,0,0,0,4.1965,4.2004,4.2022,4.208,4.2093,4.2098,4.2119,4.2114,4.2136,4.2145,4.2156,4.2177,4.2212,4.2235,4.2267,4.2338,4.2343,4.2371,4.2381,4.2389,4.2396,4.2435,4.2448,4.2309,4.2309,4.2309,0,0,4.1999,4.2017,4.2042,4.2089,4.2106,4.2146,4.2106,4.215,4.2179,4.2151,4.2207,4.2216,4.2239,4.2304,4.2333,4.2313,4.2436,4.2397,4.2403,4.2406,4.2443,4.2456,4.2468,4.2313,4.2312,4.2312,0,0,4.2083,4.21,4.2152,4.2171,4.2198,4.2202,4.2214,4.2237,4.2242,4.2298,4.2279,4.2313,4.2373,4.2391,4.2408,4.2502,4.2484,4.2512,4.2563,4.2601,4.2612,4.2622,4.2656,4.2668,4.252,4.252,4.252,0,4.2122,4.2183,4.218,4.2226,4.2248,4.2227,4.2279,4.2296,4.2332,4.2347,4.2325,4.2401,4.2415,4.2485,4.2508,4.2522,4.2536,4.2509,4.2611,4.2621,4.263,4.2662,4.2675,4.2523,4.2523,4.2522,4.2522,0,4.223,4.2273,4.2312,4.235,4.2376,4.2424,4.2427,4.2454,4.2447,4.2452,4.251,4.2527,4.2563,4.2579,4.2572,4.2648,4.2635,4.2613,4.2572,4.2647,4.2677,4.2689,4.2528,4.2527,4.2526,4.2525,0,0,4.2338,4.2376,4.239,4.2408,4.2438,4.247,4.2519,4.2556,4.2579,4.2605,4.2645,4.2698,4.2678,4.2697,4.2691,4.2725,4.2799,4.2698,4.2699,4.2717,4.2886,4.2903,4.2917,4.2788,4.2791,4.2792,4.2884,0,4.2424,4.251,4.251,4.2589,4.2629,4.2611,4.2653,4.2675,4.2682,4.2716,4.2723,4.2761,4.2731,4.2743,4.2776,4.2784,4.2833,4.2777,4.2824,4.2826,4.2819,4.2933,4.295,4.3036,4.2895,4.2897,4.2899,0,4.2535,4.2568,4.2652,4.2678,4.2695,4.2733,4.2769,4.2802,4.2827,4.2829,4.2853,4.2843,4.2891,4.2851,4.2917,4.2879,4.2898,4.2905,4.2909,4.2912,4.2867,4.2939,4.3062,4.3075,4.2917,4.2916,4.2914,0,4.2607,4.2671,4.273,4.2746,4.2778,4.2805,4.2819,4.2842,4.2866,4.2896,4.2911,4.2946,4.2965,4.2992,4.2992,4.2962,4.3059,4.3018,4.3062,4.3063,4.3083,4.3082,4.3211,4.3096,4.3096,4.3096,4.3095,0,4.2703,4.2755,4.2763,4.28,4.2858,4.2856,4.2913,4.2924,4.2946,4.2983,4.2969,4.3004,4.3002,4.3037,4.3037,4.3092,4.3101,4.3104,4.3103,4.3105,4.3105,4.3117,4.3111,4.3099,4.3098,4.3098,4.3097,0,4.2791,4.2799,4.2863,4.2889,4.2897,4.2938,4.296,4.2994,4.3001,4.3049,4.306,4.3069,4.3111,4.3113,4.316,4.316,4.3228,4.322,4.322,4.3218,4.3262,4.3258,4.3404,4.3423,4.3296,4.3297,4.3298,0,4.2852,4.2892,4.2924,4.2949,4.2966,4.3006,4.3031,4.3031,4.3057,4.3091,4.3121,4.3161,4.3194,4.326,4.3271,4.3307,4.33,4.3349,4.3305,4.3307,4.3301,4.3299,4.3303,4.3357,4.3358,4.336,4.336,0,4.2959,4.2962,4.2999,4.3039,4.3069,4.3099,4.3127,4.3149,4.3152,4.3182,4.3226,4.3251,4.3301,4.3341,4.3377,4.339,4.3376,4.3375,4.3387,4.3389,4.3387,4.3389,4.3243,4.3371,4.337,4.3369,4.3368,4.3368,4.3036,4.3072,4.31,4.3142,4.3165,4.3192,4.3226,4.3238,4.3275,4.3317,4.3315,4.3363,4.3388,4.3435,4.3451,4.3488,4.3471,4.3489,4.3493,4.3497,4.3502,4.3382,4.3494,4.3494,4.3494,4.3494,4.3493,0,4.3143,4.3161,4.32,4.3242,4.3275,4.3262,4.3293,4.3321,4.3365,4.339,4.3424,4.3474,4.3514,4.3528,4.3567,4.3594,4.3588,4.3604,4.3601,4.3605,4.3515,4.3501,4.3607,4.3607,4.3607,4.3607,4.3607,4.3607,4.3202,4.3263,4.3269,4.334,4.3357,4.3406,4.3425,4.345,4.3471,4.3529,4.3563,4.3573,4.3594,4.3634,4.367,4.3673,4.3688,4.3706,4.3707,4.3622,4.3611,4.36,4.3587,4.3709,4.371,4.3793,4.3794,4.3795]}]]